Regional Weather Roundup
Issued by NWS Jackson, KY

Home | Current Version | Previous Version | Text Only | Print | Product List | Glossary Off
Versions: 1 2 3 4 5 6 7 8 9 10 11 12 13 14 15 16 17 18 19 20 21 22 23 24 25 26 27 28 29 30 31 32 33 34 35 36 37 38 39 40 41 42 43 44 45 46 47 48 49 50

709
ASUS43 KJKL 071410
RWRJKL

EAST KENTUCKY HOURLY WEATHER ROUNDUP
NATIONAL WEATHER SERVICE JACKSON KY
900 AM EST SUN FEB 07 2016

NOTE: "FAIR" INDICATES FEW OR NO CLOUDS BELOW 12,000 FEET WITH
NO SIGNIFICANT WEATHER AND/OR OBSTRUCTIONS TO VISIBILITY.

* THESE REPORTS ARE NOT UNDER NWS QUALITY CONTROL AND MAY NOT
  REPORT WEATHER SUCH AS PRECIPITATION AND FOG.

KYZ079-080-083-085-087-088-110-112-115-119-120-071500
...EASTERN KENTUCKY...

CITY           SKY/WX    TMP DP  RH WIND       PRES   REMARKS
JACKSON        SUNNY     34  23  64 SW5       30.16F WCI  30
LONDON         SUNNY     28  24  85 CALM      30.18F
SOMERSET*      SUNNY     28  27  93 CALM      30.22S
MONTICELLO*    SUNNY     32  29  88 NE7       30.22F WCI  26
WILLIAMSBURG*  SUNNY     28  27  93 CALM      30.20S
MIDDLESBORO*   SUNNY     27  25  93 CALM      30.21F
HARLAN APT*      N/A     30  27  86 CALM      30.18S
HAZARD APT*    SUNNY    N/A N/A N/A CALM      30.18S
BLACK MTN*       N/A     30  23  74 N9          N/A  WCI  22
BIG SANDY*     MOSUNNY   34  26  73 SW3       30.16S
MOREHEAD APT*  SUNNY     32  27  80 CALM      30.18F
$$

KYZ035-036-041-042-044-050-067-078-099-071500
...CENTRAL KENTUCKY...

CITY           SKY/WX    TMP DP  RH WIND       PRES   REMARKS
MT STERLING*   SUNNY     32  27  80 SW5       30.17F WCI  27
DANVILLE*      SUNNY     32  25  74 S8        30.19S WCI  25
RICHMOND*      SUNNY     37  21  52 S5        30.17S WCI  34
LEXINGTON      SUNNY     34  24  67 S8        30.16S WCI  27
FRANKFORT      CLOUDY    33  25  72 S5        30.14F WCI  29
$$

KYZ091>093-OHZ055-061-077-WVZ005-015-034-035-042-071500
...SOUTHERN OHIO/WEST VIRGINIA...

CITY           SKY/WX    TMP DP  RH WIND       PRES   REMARKS
COVINGTON      MOSUNNY   36  23  59 S9        30.10F WCI  29
COLUMBUS       MOSUNNY   32  23  69 S5        30.10S WCI  27
DAYTON         PTSUNNY   36  24  62 SW12      30.05F WCI  28
WILMINGTON     SUNNY     35  26  69 S7        30.10S WCI  29
HUNTINGTON       N/A     31  25  78 CALM      30.16F
CHARLESTON       N/A     28  25  88 CALM      30.16F
PINEVILLE*       N/A     29  23  79 MISG      30.19F
BECKLEY          N/A     31  19  61 CALM      30.11F
$$

VAZ002-007-008-TNZ017-027-036-066-071-071500
...SOUTHWEST VIRGINIA/EAST TENNESSEE...

CITY           SKY/WX    TMP DP  RH WIND       PRES   REMARKS
BRISTOL        MOSUNNY   28  24  85 CALM      30.17R
KNOXVILLE      SUNNY     31  25  78 CALM      30.20R
OAK RIDGE      SUNNY     32  27  81 CALM      30.21F
CROSSVILLE     SUNNY     34  26  72 W3        30.18S
NASHVILLE      MOSUNNY   30  26  85 CALM      30.23R
$$

...KEY TO REMARKS...
VSB - VISIBILITY IN MILES
WCI - WIND CHILL INDEX
HX  - HEAT INDEX

$$




USA.gov is the U.S. government's official web portal to all federal, state and local government web resources and services.